Location: Dodgeville, WI 53533, USA
(43.0344°N, 90.0900°W)
Time: 12:53:27
(UTC-05:00)

HTV-X1 - Visible Passes

Search period start: 22 April 2026 00:00
Search period end: 02 May 2026 00:00
Orbit: 462 x 473 km, 51.6° (Epoch: 22 April)

Date Brightness Start Highest point End Pass type
(mag) Time Alt. Az. Time Alt. Az. Time Alt. Az.
22 Apr ? 03:23:18 13° ESE 03:23:18 13° ESE 03:24:10 10° E visible
22 Apr ? 04:57:14 21° WSW 04:59:34 86° NNW 05:03:15 10° ENE visible
23 Apr ? 04:26:25 42° SW 04:27:32 81° SE 04:31:12 10° ENE visible
24 Apr ? 03:55:32 68° SE 03:55:32 68° SE 03:59:08 10° ENE visible
24 Apr ? 05:30:22 10° W 05:33:37 29° NNW 05:36:53 10° NE visible
25 Apr ? 03:24:35 38° E 03:24:35 38° E 03:27:04 10° ENE visible
25 Apr ? 04:58:31 12° W 05:01:31 32° NNW 05:04:51 10° NE visible
26 Apr ? 02:53:35 21° ENE 02:53:35 21° ENE 02:54:57 10° ENE visible
26 Apr ? 04:27:31 21° WNW 04:29:23 35° NNW 04:32:48 10° NE visible
27 Apr ? 02:22:33 12° ENE 02:22:33 12° ENE 02:22:49 10° ENE visible
27 Apr ? 03:56:29 34° NW 03:57:17 39° NNW 04:00:45 10° NE visible
28 Apr ? 03:25:24 43° NNW 03:25:24 43° NNW 03:28:41 10° NE visible
28 Apr ? 05:00:49 10° WNW 05:03:42 21° N 05:06:35 10° NE visible
29 Apr ? 02:54:16 33° NNE 02:54:16 33° NNE 02:56:37 10° NE visible
29 Apr ? 04:28:38 10° WNW 04:31:32 22° N 04:34:27 10° NE visible
30 Apr ? 02:23:07 21° NE 02:23:07 21° NE 02:24:32 10° NE visible
30 Apr ? 03:57:02 13° NW 03:59:21 22° N 04:02:19 10° NE visible
1 May ? 01:51:56 13° NE 01:51:56 13° NE 01:52:26 10° NE visible
1 May ? 03:25:51 19° NW 03:27:10 23° N 03:30:11 10° NE visible
1 May ? 05:02:54 10° NW 05:05:54 23° N 05:08:54 10° ENE visible
